Hourly Data Report for September 07, 2017

All times are specified in Local Standard Time (LST). Add 1 hour to adjust for Daylight Saving Time where and when it is observed.

WOODSTOCK NEWBRIDGE
NEW BRUNSWICK

46°09'08.000" N
67°32'34.000" W
154.00 m
8105603
71606
EWD

Download Data

Hourly Data (September 2017)
Hourly Data Report for September 7, 2017
Temp Definition
°C
Dew Point Temp Definition
°C
Rel Hum Definition
%
Wind Dir Definition
10's deg

Wind Spd Definition
km/h
Visibility Definition
km
Stn Press Definition
kPa
Hmdx Definition


Wind Chill Definition


Weather Definition


TIME
00:00 14.9 14.6 98 32 4   99.58     LegendNANA
01:00 14.9 14.6 98 32 1   99.53     LegendNANA
02:00 15.0 14.7 98   0   99.43     LegendNANA
03:00 15.2 14.9 98   0   99.32     LegendNANA
04:00 17.5 17.3 99 14 4   99.22     LegendNANA
05:00 19.0 18.5 97 13 6   99.11     LegendNANA
06:00 18.9 18.4 97 12 9   99.07     LegendNANA
07:00 18.9 18.3 96 11 15   98.97     LegendNANA
08:00 18.4 17.8 96 11 12   98.85     LegendNANA
09:00 18.7 17.9 95 13 17   98.78     LegendNANA
10:00 19.5 18.7 95 14 13   98.73     LegendNANA
11:00 20.1 19.2 95 15 13   98.69 27   LegendNANA
12:00 20.8 19.8 94 15 12   98.60 28   LegendNANA
13:00 21.5 19.7 90 17 13   98.57 29   LegendNANA
14:00 20.4 18.9 91 21 13   98.63 27   LegendNANA
15:00 19.5 17.2 87 20 12   98.72     LegendNANA
16:00 20.0 15.8 77 21 14   98.78     LegendNANA
17:00 18.9 15.0 78 20 11   98.82     LegendNANA
18:00 19.1 15.2 78 19 9   98.87     LegendNANA
19:00 17.6 15.0 85 18 7   98.91     LegendNANA
20:00 16.2 14.6 90 18 5   98.99     LegendNANA
21:00 15.4 13.1 86 20 3   99.07     LegendNANA
22:00 13.7 13.0 95 21 4   99.13     LegendNANA
23:00 11.9 11.3 96 22 3   99.15     LegendNANA

Notes on Data Quality.

Legend

  • E = Estimated
  • M = Missing
  • NA = Not Available
  • ‡ = Partner data that is not subject to review by the National Climate Archives
Date modified: